This demonstration page uses our WeatherBlox Daily Observations layout. Learn more.

Left ArrowRight Arrow

Hourly Observations for April 16, 2020

Temp ( °F °C ) Dew Point ( °F °C ) Humidity (%) Winds ( mph kmh ) Pressure ( in mb ) Visibility ( mi km ) Precip ( " mm )
12:15 am 00:15 Clear 41 5 30 -1 66 66 WSW 5 7 30.03 1017 10 16.0934 0 0
12:35 am 00:35 Clear 41 5 30 -1 66 66 SW 5 7 30.04 1017 10 16.0934 0 0
12:55 am 00:55 Partly Cloudy 37 3 30 -1 75 75 W 6 9 30.06 1018 10 16.0934 0 0
1:15 am 01:15 Partly Cloudy 39 4 32 0 75 75 W 6 9 30.06 1018 10 16.0934 0 0
1:35 am 01:35 Mostly Cloudy 39 4 30 -1 70 70 W 6 9 30.07 1018 10 16.0934 0 0
1:55 am 01:55 Cloudy 41 5 32 0 70 70 W 7 11 30.07 1018 10 16.0934 0 0
2:15 am 02:15 Cloudy 41 5 30 -1 66 66 WNW 10 17 30.08 1019 10 16.0934 0 0
2:35 am 02:35 Cloudy 43 6 30 -1 61 61 NW 16 26 30.09 1019 10 16.0934 0 0
2:55 am 02:55 Cloudy 43 6 32 0 66 66 NW 13 20 30.09 1019 10 16.0934 0 0
3:15 am 03:15 Cloudy 43 6 34 1 71 71 NW 16 26 30.09 1019 10 16.0934 0 0
3:35 am 03:35 Mostly Cloudy 43 6 34 1 71 71 NW 14 22 30.1 1019 10 16.0934 0 0
3:55 am 03:55 Partly Cloudy 41 5 34 1 76 76 NW 10 17 30.1 1019 10 16.0934 0 0
4:15 am 04:15 Partly Cloudy 39 4 32 0 75 75 WNW 8 13 30.12 1020 10 16.0934 0 0
4:35 am 04:35 Partly Cloudy 41 5 32 0 70 70 NW 9 15 30.12 1020 10 16.0934 0 0
4:55 am 04:55 Partly Cloudy 41 5 32 0 70 70 NW 15 24 30.13 1020 10 16.0934 0 0
5:15 am 05:15 Clear 41 5 30 -1 66 66 NW 12 19 30.14 1021 10 16.0934 0 0
5:35 am 05:35 Clear 39 4 30 -1 70 70 NW 17 28 30.15 1021 10 16.0934 0 0
5:55 am 05:55 Clear 39 4 28 -2 65 65 NW 18 30 30.16 1021 10 16.0934 0 0
6:15 am 06:15 Partly Cloudy 37 3 28 -2 70 70 NW 12 19 30.17 1022 10 16.0934 0 0
6:35 am 06:35 Sunny 37 3 28 -2 70 70 NW 13 20 30.17 1022 10 16.0934 0 0
6:55 am 06:55 Sunny 37 3 28 -2 70 70 WNW 10 17 30.18 1022 10 16.0934 0 0
7:15 am 07:15 Partly Cloudy 37 3 28 -2 70 70 W 7 11 30.19 1022 10 16.0934 0 0
7:35 am 07:35 Mostly Cloudy 37 3 28 -2 70 70 WNW 9 15 30.2 1023 10 16.0934 0 0
7:55 am 07:55 Mostly Cloudy 37 3 28 -2 70 70 WNW 8 13 30.21 1023 10 16.0934 0 0
8:15 am 08:15 Cloudy 41 5 30 -1 66 66 WNW 10 17 30.21 1023 10 16.0934 0 0
8:35 am 08:35 Cloudy 41 5 28 -2 61 61 WNW 7 11 30.22 1023 10 16.0934 0 0
8:55 am 08:55 Cloudy 41 5 28 -2 61 61 NW 10 17 30.22 1023 10 16.0934 0 0
9:15 am 09:15 Cloudy 41 5 28 -2 61 61 NW 13 20 30.22 1023 10 16.0934 0 0
9:35 am 09:35 Cloudy 41 5 30 -1 66 66 NNW 14 22 30.22 1023 10 16.0934 0 0
9:55 am 09:55 Cloudy 41 5 30 -1 66 66 N 8 13 30.23 1024 10 16.0934 0 0
10:15 am 10:15 Cloudy 41 5 28 -2 61 61 NW 15 24 30.23 1024 10 16.0934 0 0
10:35 am 10:35 Mostly Cloudy 45 7 27 -3 49 49 NW 21 33 30.23 1024 10 16.0934 0 0
10:55 am 10:55 Partly Cloudy 45 7 27 -3 49 49 WNW 20 31 30.24 1024 10 16.0934 0 0
11:15 am 11:15 Mostly Cloudy 43 6 27 -3 53 53 NW 16 26 30.24 1024 10 16.0934 0 0
11:35 am 11:35 Partly Cloudy 45 7 27 -3 49 49 WNW 14 22 30.23 1024 10 16.0934 0 0
12:15 pm 12:15 Partly Cloudy 46 8 27 -3 46 46 NW 16 26 30.23 1024 10 16.0934 0 0
12:35 pm 12:35 Partly Cloudy 46 8 27 -3 46 46 W 14 22 30.23 1024 10 16.0934 0 0
12:55 pm 12:55 Sunny 46 8 28 -2 50 50 WNW 12 19 30.22 1023 10 16.0934 0 0
1:15 pm 13:15 Partly Cloudy 46 8 28 -2 50 50 WNW 15 24 30.23 1024 10 16.0934 0 0
1:35 pm 13:35 Partly Cloudy 46 8 27 -3 46 46 WNW 15 24 30.23 1024 10 16.0934 0 0
1:55 pm 13:55 Sunny 48 9 27 -3 43 43 WNW 22 35 30.23 1024 10 16.0934 0 0
2:15 pm 14:15 Sunny 48 9 25 -4 40 40 NW 17 28 30.23 1024 10 16.0934 0 0
2:35 pm 14:35 Partly Cloudy 50 10 27 -3 40 40 NW 18 30 30.23 1024 10 16.0934 0 0
2:55 pm 14:55 Sunny 50 10 25 -4 37 37 NW 21 33 30.23 1024 10 16.0934 0 0
3:15 pm 15:15 Sunny 50 10 27 -3 40 40 NW 22 35 30.22 1023 10 16.0934 0 0
3:35 pm 15:35 Partly Cloudy 50 10 25 -4 37 37 NW 20 31 30.22 1023 10 16.0934 0 0
3:55 pm 15:55 Partly Cloudy 50 10 25 -4 37 37 NNW 14 22 30.22 1023 10 16.0934 0 0
4:15 pm 16:15 Partly Cloudy 50 10 23 -5 35 35 WNW 20 31 30.22 1023 10 16.0934 0 0
4:35 pm 16:35 Partly Cloudy 50 10 23 -5 35 35 NW 18 30 30.21 1023 10 16.0934 0 0
4:55 pm 16:55 Partly Cloudy 50 10 23 -5 35 35 NNW 21 33 30.22 1023 10 16.0934 0 0
5:15 pm 17:15 Sunny 50 10 25 -4 37 37 NW 20 31 30.22 1023 10 16.0934 0 0
5:35 pm 17:35 Partly Cloudy 50 10 23 -5 35 35 NNW 20 31 30.22 1023 10 16.0934 0 0
5:55 pm 17:55 Sunny 50 10 23 -5 35 35 NNW 10 17 30.22 1023 10 16.0934 0 0
6:15 pm 18:15 Sunny 50 10 23 -5 35 35 NNW 9 15 30.22 1023 10 16.0934 0 0
6:35 pm 18:35 Sunny 50 10 23 -5 35 35 NW 13 20 30.22 1023 10 16.0934 0 0
6:55 pm 18:55 Sunny 48 9 23 -5 37 37 NNW 10 17 30.22 1023 10 16.0934 0 0
7:15 pm 19:15 Sunny 48 9 23 -5 37 37 N 9 15 30.22 1023 10 16.0934 0 0
7:35 pm 19:35 Sunny 46 8 21 -6 37 37 N 5 7 30.22 1023 10 16.0934 0 0
7:55 pm 19:55 Clear 46 8 23 -5 40 40 N 5 7 30.23 1024 10 16.0934 0 0
8:15 pm 20:15 Clear 46 8 21 -6 37 37 NE 5 7 30.23 1024 10 16.0934 0 0
8:35 pm 20:35 Clear 45 7 23 -5 42 42 NE 3 6 30.24 1024 10 16.0934 0 0
8:55 pm 20:55 Clear 45 7 23 -5 42 42 NE 3 6 30.24 1024 10 16.0934 0 0
9:15 pm 21:15 Clear 43 6 25 -4 49 49 NE 3 6 30.25 1024 10 16.0934 0 0
9:35 pm 21:35 Clear 43 6 23 -5 46 46 ENE 3 6 30.27 1025 10 16.0934 0 0
9:55 pm 21:55 Clear 39 4 28 -2 65 65 Calm 30.29 1026 10 16.0934 0 0
10:15 pm 22:15 Clear 37 3 30 -1 75 75 Calm 30.29 1026 10 16.0934 0 0
10:35 pm 22:35 Clear 37 3 32 0 81 81 Calm 30.29 1026 10 16.0934 0 0
10:55 pm 22:55 Clear 37 3 32 0 81 81 Calm 30.3 1026 10 16.0934 0 0
11:15 pm 23:15 Clear 36 2 30 -1 81 81 Calm 30.3 1026 10 16.0934 0 0
11:35 pm 23:35 Clear 34 1 30 -1 87 87 Calm 30.3 1026 10 16.0934 0 0
11:55 pm 23:55 Clear 36 2 32 0 87 87 Calm 30.31 1026 10 16.0934 0 0

Powered by AerisWeather